[[{"header":{"parameterUnit":"m.s-1","parameterCategory":1,"la1":30.2991,"la2":30.254,"lo1":-89.0895,"lo2":-89.0444,"dy":0.0017,"dx":0.0017,"nx":28,"ny":28,"refTime":"2023-04-28T21:00:00:Z","depth":0,"parameterNumber":2,"parameterNumberName":"U-component_of_WINDS"},"data":[0,0,0,0,0,0,0,0,0,0,0,0,0,0,0,0,0,0,0,0,0,0,0,0,0,0,0,0,0,0,0,0,0,0,0,0,0,0,0,0,0,0,0,0,0,0,0,0,0,0,0,0,0,0,0,0,0,0,-0.3156,-0.3147,0,-0.2294,-0.2285,-0.2275,-0.19,-0.1902,-0.1903,-0.1904,-0.0999,-0.0974,-0.0949,0,0,0,0,0,0,0,0,0,0,0,0,0,-0.446,-0.4438,-0.3158,-0.3147,-0.3136,-0.2296,-0.2284,-0.2272,-0.19,-0.1902,-0.1903,-0.1905,-0.1007,-0.0977,-0.0947,0,0,0,0,0,0,0,0,0,0,0,0,0,-0.3776,-0.4431,-0.3159,-0.2849,-0.2813,-0.2298,-0.2284,-0.2269,-0.19,-0.1902,-0.1904,-0.1906,-0.1017,-0.098,-0.0943,-0.0665,0,0,-0.0826,-0.081,0,0,0,0,0,0,0,0,-0.3815,-0.3728,-0.2906,-0.287,-0.2828,-0.2208,-0.2411,-0.173,-0.1899,-0.2246,-0.1904,-0.1907,-0.1398,-0.1329,-0.1161,-0.0623,-0.0584,-0.0823,-0.08,-0.0783,-0.0773,0,0,0,0,0,0,0,-0.3863,-0.3763,-0.2815,-0.2894,-0.2847,-0.2746,-0.2651,-0.228,-0.182,-0.2216,-0.2187,-0.2091,-0.1377,-0.1199,-0.1137,-0.0571,-0.0824,-0.079,-0.0767,-0.0752,0.0244,0.0248,0,0,0,0,0,0,-0.3964,-0.3805,-0.2842,-0.2789,-0.3338,-0.2721,-0.2615,-0.2404,-0.1823,-0.1737,-0.209,-0.2077,-0.1263,-0.1182,-0.1104,-0.0738,-0.0784,-0.0748,-0.0726,0.0241,0.0245,0.0249,0,0,0,0,0,0,-0.3994,-0.3882,-0.2877,-0.3289,-0.3153,-0.2697,-0.2463,-0.2386,-0.2208,-0.1728,-0.1642,-0.1994,-0.1262,-0.1158,-0.0778,-0.0702,-0.0731,-0.0696,0.0236,0.0242,0.0247,-0.0008,0,0,0,0,0,0,-0.4033,-0.3895,-0.379,-0.329,-0.3133,-0.2573,-0.2458,-0.2368,-0.2146,-0.212,-0.1616,-0.1534,-0.1255,-0.0837,-0.074,-0.065,-0.0666,0.0232,0.0239,0.0245,-0.0004,-0.0012,-0.0019,0,0,0,0,0,-0.4081,-0.3892,-0.3787,-0.3672,-0.2994,-0.257,-0.2479,-0.2169,-0.2142,-0.2028,-0.172,-0.155,-0.0727,-0.0801,-0.0689,-0.0586,0.0228,0.0237,0.0245,-0.0001,-0.0011,-0.0019,0,0,0,0,0,0,-0.4387,-0.3821,-0.3697,-0.3343,-0.3009,-0.2508,-0.2356,-0.2189,-0.1849,-0.1839,-0.1461,-0.135,-0.1002,-0.0755,-0.0848,-0.0285,-0.0234,-0.0204,-0.046,-0.0464,-0.0472,-0.0537,-0.0635,0,0,0,0,0,-0.4416,-0.4126,-0.3642,-0.3376,-0.3215,-0.2816,-0.2619,-0.241,-0.2045,-0.1899,-0.1562,-0.1208,-0.0868,-0.0653,-0.0314,0.0032,0.0151,0.0159,0.0151,0.0143,0.0166,0.0372,0.0382,0.0275,0.0275,0.0275,0,0,-0.4466,-0.4121,-0.396,-0.3429,-0.3145,-0.2846,-0.2698,-0.2389,-0.2161,-0.1848,-0.1471,-0.1212,-0.0791,-0.0427,-0.0249,-0.021,0.0222,0.0153,0.0143,0.0173,0.0381,0.0391,0.04,0.0281,0.028,0.0279,0,0,-0.4408,-0.412,-0.3865,-0.3586,-0.316,-0.2896,-0.2836,-0.2359,-0.2177,-0.1794,-0.1553,-0.1273,-0.0698,-0.0408,-0.0185,-0.0019,0.0153,0.0082,0.0045,0.0241,0.025,0.0259,0.0322,0.034,0.0103,0.0102,0.0102,0,-0.4523,-0.4072,-0.3754,-0.3458,-0.3229,-0.2941,-0.2677,-0.2417,-0.1901,-0.1746,-0.1712,-0.0985,-0.0681,-0.0243,-0.0204,-0.0034,0.0053,0.0027,0.0221,0.0234,0.0248,0.0312,0.0334,0.0091,0.0092,0.0094,0.0095,0,-0.4233,-0.3923,-0.3767,-0.3285,-0.3037,-0.276,-0.2393,-0.218,-0.1993,-0.1731,-0.1341,-0.0967,-0.0548,-0.0428,-0.0239,0.0038,0.0049,0.0146,0.0206,0.0241,0.0308,0.0335,0.0075,0.0079,0.0082,0.0085,0,0,-0.434,-0.3689,-0.3637,-0.3413,-0.2924,-0.2673,-0.238,-0.1977,-0.18,-0.1453,-0.1193,-0.0714,-0.0621,-0.0368,-0.0143,0.0028,0.014,0.0108,0.0123,0.0102,0.0473,0.0397,0.042,0.0254,0.026,0.0265,0.0438,0,-0.4213,-0.3684,-0.3389,-0.2978,-0.2685,-0.2407,-0.215,-0.1818,-0.1565,-0.1273,-0.0989,-0.0656,-0.0559,-0.0405,-0.0224,0.0086,0.022,0.0078,0.0507,0.0519,0.0394,0.0455,0.0377,0.0521,0.0466,0.0471,0.0474,0,-0.3994,-0.3661,-0.3225,-0.2768,-0.2633,-0.2409,-0.2015,-0.1742,-0.1357,-0.1184,-0.0906,-0.0683,-0.0354,-0.0324,0.0137,0.0034,0.0228,0.0407,0.042,0.0475,0.0499,0.0514,0.0575,0.0597,0.0518,0.0515,0.0512,0,-0.4115,-0.3555,-0.3221,-0.3038,-0.2498,-0.2346,-0.2113,-0.1731,-0.1507,-0.116,-0.101,-0.0628,-0.0417,-0.0122,0.0201,0.0192,0.0631,0.0688,0.079,0.0781,0.0873,0.0863,0.0967,0.099,0.099,0.099,0.0989,0,-0.4002,-0.3745,-0.3268,-0.3063,-0.2764,-0.2425,-0.2137,-0.1879,-0.1542,-0.1276,-0.1009,-0.0764,-0.0354,-0.0055,0.02,0.0545,0.0639,0.0793,0.0858,0.077,0.075,0.0905,0.0904,0.0996,0.0995,0.0993,0.0992,0,-0.4085,-0.3756,-0.3373,-0.2896,-0.2769,-0.257,-0.2156,-0.1942,-0.1677,-0.1343,-0.1245,-0.0825,-0.0459,-0.011,0.0382,0.0554,0.09,0.0985,0.0767,0.0804,0.0886,0.0874,0.1097,0.1145,0.1129,0.1128,0.1128,0,-0.4034,-0.3831,-0.3334,-0.3141,-0.2915,-0.2606,-0.2378,-0.2035,-0.1807,-0.1355,-0.1194,-0.0811,-0.0486,0.0087,0.0441,0.082,0.0918,0.0969,0.0977,0.0883,0.0923,0.0907,0.0932,0.0962,0.096,0.0959,0.0958,0,-0.3977,-0.3826,-0.3512,-0.3142,-0.288,-0.2569,-0.2248,-0.2103,-0.1696,-0.1453,-0.1081,-0.083,-0.0331,0.0049,0.0467,0.0719,0.0909,0.0951,0.0996,0.091,0.0776,0.0853,0.0748,0.0946,0.0947,0.0948,0.0949,0.0949,-0.3987,-0.3794,-0.3415,-0.3074,-0.2799,-0.2506,-0.2282,-0.1991,-0.1677,-0.125,-0.1064,-0.0687,-0.0302,0.0278,0.0526,0.0832,0.0877,0.094,0.0957,0.0968,0.095,0.0723,0.0909,0.091,0.0911,0.0912,0.0912,0,-0.3915,-0.3659,-0.3349,-0.2913,-0.2644,-0.2498,-0.2135,-0.1917,-0.1591,-0.1253,-0.0941,-0.0511,-0.0141,0.0239,0.0632,0.0804,0.0902,0.0896,0.0889,0.0945,0.0886,0.0809,0.0811,0.0811,0.0811,0.0811,0.0811,0.0811,-0.3846,-0.351,-0.3314,-0.2836,-0.2577,-0.2213,-0.2018,-0.1744,-0.1472,-0.1008,-0.0703,-0.046,-0.01,0.032,0.0668,0.0772,0.0906,0.0876,0.1004,0.0943,0.0948,0.0954,0.0884,0.0901,0.0901,0.1039,0.104,0.104]},{"header":{"parameterUnit":"m.s-1","parameterCategory":1,"la1":30.2991,"la2":30.254,"lo1":-89.0895,"lo2":-89.0444,"dy":0.0017,"dx":0.0017,"nx":28,"ny":28,"refTime":"2023-04-28T21:00:00:Z","depth":0,"parameterNumber":3,"parameterNumberName":"V-component_of_WINDS"},"data":[0,0,0,0,0,0,0,0,0,0,0,0,0,0,0,0,0,0,0,0,0,0,0,0,0,0,0,0,0,0,0,0,0,0,0,0,0,0,0,0,0,0,0,0,0,0,0,0,0,0,0,0,0,0,0,0,0,0,-5.4488,-5.4491,0,-5.4716,-5.4719,-5.4722,-5.4663,-5.4658,-5.4654,-5.465,-5.4879,-5.4889,-5.4899,0,0,0,0,0,0,0,0,0,0,0,0,0,-5.3997,-5.4006,-5.4488,-5.4491,-5.4494,-5.4716,-5.4719,-5.4722,-5.4664,-5.4658,-5.4653,-5.4648,-5.4876,-5.4888,-5.49,0,0,0,0,0,0,0,0,0,0,0,0,0,-5.4216,-5.4009,-5.4487,-5.4491,-5.4494,-5.4715,-5.4719,-5.4723,-5.4665,-5.4658,-5.4651,-5.4645,-5.4872,-5.4887,-5.4902,-5.5132,0,0,-5.4949,-5.4956,0,0,0,0,0,0,0,0,-5.4203,-5.4234,-5.4488,-5.4492,-5.4495,-5.4654,-5.463,-5.486,-5.4667,-5.46,-5.465,-5.4642,-5.481,-5.483,-5.4887,-5.5143,-5.5153,-5.495,-5.496,-5.4966,-5.4971,0,0,0,0,0,0,0,-5.4188,-5.4224,-5.4578,-5.4492,-5.4496,-5.448,-5.4504,-5.4673,-5.4739,-5.4605,-5.4601,-5.463,-5.481,-5.4872,-5.4892,-5.5156,-5.495,-5.4964,-5.4973,-5.4979,-5.5612,-5.562,0,0,0,0,0,0,-5.4171,-5.4212,-5.4571,-5.4585,-5.433,-5.4495,-5.4521,-5.461,-5.4738,-5.4751,-5.4635,-5.4626,-5.4849,-5.4874,-5.49,-5.5179,-5.4966,-5.4981,-5.499,-5.5605,-5.5614,-5.5622,0,0,0,0,0,0,-5.4161,-5.4204,-5.4562,-5.4398,-5.4442,-5.451,-5.461,-5.4618,-5.468,-5.476,-5.4771,-5.4687,-5.4845,-5.4878,-5.5075,-5.5186,-5.4988,-5.5002,-5.5596,-5.5608,-5.5618,-5.5738,0,0,0,0,0,0,-5.4147,-5.42,-5.429,-5.44,-5.4451,-5.4735,-5.4617,-5.4627,-5.4708,-5.4698,-5.4812,-5.4824,-5.4842,-5.5053,-5.5091,-5.5203,-5.5014,-5.5586,-5.5601,-5.5615,-5.5724,-5.5752,-5.5775,0,0,0,0,0,-5.413,-5.4313,-5.4294,-5.4338,-5.4564,-5.4741,-5.477,-5.4789,-5.4717,-5.4806,-5.4858,-5.4821,-5.5167,-5.5073,-5.5116,-5.5235,-5.558,-5.5597,-5.5613,-5.5713,-5.5746,-5.5774,0,0,0,0,0,0,-5.4212,-5.4327,-5.4308,-5.4533,-5.4628,-5.4731,-5.4845,-5.4823,-5.494,-5.4926,-5.4942,-5.4968,-5.517,-5.5221,-5.5115,-5.5464,-5.5363,-5.5389,-5.5424,-5.5456,-5.5481,-5.5465,-5.5027,0,0,0,0,0,-5.4257,-5.4393,-5.4485,-5.4675,-5.4723,-5.4776,-5.4854,-5.486,-5.4959,-5.4998,-5.5064,-5.5159,-5.529,-5.5375,-5.55,-5.5731,-5.5755,-5.5833,-5.5859,-5.5879,-5.5902,-5.6029,-5.6065,-5.5678,-5.5678,-5.5678,0,0,-5.435,-5.4429,-5.4514,-5.4693,-5.4768,-5.4907,-5.481,-5.4961,-5.5065,-5.502,-5.5212,-5.5263,-5.5371,-5.5586,-5.5684,-5.5635,-5.6015,-5.5901,-5.5917,-5.5929,-5.605,-5.6087,-5.612,-5.569,-5.5688,-5.5686,0,0,-5.4591,-5.4665,-5.4831,-5.4908,-5.5023,-5.5057,-5.5097,-5.5204,-5.5237,-5.5429,-5.5399,-5.5521,-5.5745,-5.5824,-5.5893,-5.6164,-5.6135,-5.6204,-5.6338,-5.6461,-5.6492,-5.6519,-5.6617,-5.6652,-5.6226,-5.6227,-5.6227,0,-5.4692,-5.4902,-5.4919,-5.5074,-5.5154,-5.5121,-5.529,-5.5363,-5.5511,-5.5567,-5.551,-5.5792,-5.5862,-5.6096,-5.6162,-5.6219,-5.6265,-5.6192,-5.6486,-5.6514,-5.6539,-5.6633,-5.667,-5.6234,-5.6233,-5.6233,-5.6232,0,-5.5021,-5.5167,-5.5287,-5.5434,-5.5527,-5.5688,-5.5728,-5.582,-5.5817,-5.5857,-5.6053,-5.6136,-5.6277,-5.6333,-5.6331,-5.6567,-5.6534,-5.6482,-5.638,-5.6584,-5.6672,-5.6708,-5.6246,-5.6243,-5.624,-5.6238,0,0,-5.5321,-5.5476,-5.552,-5.5586,-5.571,-5.5823,-5.5981,-5.6121,-5.62,-5.6303,-5.6437,-5.6628,-5.6581,-5.666,-5.6666,-5.6775,-5.6986,-5.671,-5.6712,-5.6759,-5.7252,-5.7291,-5.7333,-5.6966,-5.6973,-5.6979,-5.7243,0,-5.5574,-5.5856,-5.5876,-5.613,-5.6265,-5.6237,-5.6375,-5.6465,-5.6506,-5.6626,-5.667,-5.6806,-5.6733,-5.6781,-5.6887,-5.6938,-5.7085,-5.6919,-5.7091,-5.7097,-5.7067,-5.7379,-5.7421,-5.7666,-5.7278,-5.7283,-5.7288,0,-5.5907,-5.6023,-5.6291,-5.6397,-5.6455,-5.6579,-5.6709,-5.6824,-5.6925,-5.6948,-5.7036,-5.7028,-5.719,-5.7082,-5.7306,-5.7192,-5.7264,-5.7299,-5.7309,-5.7327,-5.7206,-5.7406,-5.7745,-5.7783,-5.7342,-5.7338,-5.7334,0,-5.61,-5.6323,-5.6513,-5.657,-5.6698,-5.6786,-5.6843,-5.6939,-5.7022,-5.7135,-5.7189,-5.7318,-5.739,-5.749,-5.7517,-5.7435,-5.7741,-5.7634,-5.7764,-5.7763,-5.7831,-5.7826,-5.8187,-5.7874,-5.7873,-5.7873,-5.7872,0,-5.6382,-5.6547,-5.6602,-5.6719,-5.6903,-5.6924,-5.7105,-5.7156,-5.7242,-5.7367,-5.7349,-5.7466,-5.7494,-5.7618,-5.7639,-5.7822,-5.7854,-5.7876,-5.788,-5.7879,-5.7877,-5.7927,-5.7912,-5.7882,-5.788,-5.7878,-5.7877,0,-5.663,-5.6673,-5.6878,-5.6983,-5.7013,-5.7145,-5.7234,-5.7345,-5.7384,-5.7543,-5.7581,-5.7642,-5.7786,-5.7823,-5.7994,-5.8009,-5.8225,-5.8212,-5.8192,-5.8192,-5.832,-5.8308,-5.8727,-5.8784,-5.8432,-5.8435,-5.8438,0,-5.6807,-5.6934,-5.7054,-5.7137,-5.7199,-5.7334,-5.7419,-5.7444,-5.7533,-5.7659,-5.7756,-5.7898,-5.8013,-5.8244,-5.8303,-5.8434,-5.8425,-5.8563,-5.8445,-5.844,-5.8429,-5.8422,-5.8436,-5.8586,-5.859,-5.8593,-5.8595,0,-5.7118,-5.7134,-5.7258,-5.7391,-5.7494,-5.7599,-5.77,-5.7769,-5.7807,-5.7908,-5.8057,-5.8146,-5.8322,-5.8464,-5.8596,-5.8653,-5.8632,-5.8632,-5.8669,-5.867,-5.8654,-5.8666,-5.8255,-5.8622,-5.862,-5.8618,-5.8616,-5.8615,-5.7338,-5.745,-5.7552,-5.7692,-5.777,-5.7865,-5.7976,-5.8029,-5.8154,-5.83,-5.8306,-5.8468,-5.8566,-5.8742,-5.8807,-5.8933,-5.8891,-5.8944,-5.8958,-5.8972,-5.8984,-5.8632,-5.8957,-5.8956,-5.8955,-5.8955,-5.8954,0,-5.7649,-5.7714,-5.7842,-5.7984,-5.8094,-5.8065,-5.8175,-5.8268,-5.8411,-5.8506,-5.862,-5.8791,-5.8928,-5.8998,-5.9134,-5.9221,-5.9215,-5.9257,-5.9251,-5.9265,-5.9013,-5.8968,-5.926,-5.926,-5.926,-5.926,-5.9259,-5.9259,-5.7824,-5.8013,-5.8041,-5.8268,-5.8331,-5.8491,-5.8556,-5.8643,-5.8719,-5.8911,-5.9026,-5.9071,-5.9156,-5.9298,-5.9423,-5.9439,-5.9491,-5.9539,-5.9551,-5.9314,-5.9283,-5.9253,-5.9211,-5.9549,-5.955,-5.9793,-5.9795,-5.9797]}]]